Regional Weather Roundup
Issued by NWS

Home | Current Version | Previous Version | Text Only | Print | Product List | Glossary Off
Versions: 1 2 3 4 5 6 7 8 9 10 11 12 13 14 15 16 17 18 19 20 21 22 23 24 25 26 27 28 29 30 31 32 33 34 35 36 37 38 39 40 41 42 43 44 45 46 47 48 49 50

652
ASUS43 KFSD 281310
RWRSD

WEATHER ROUNDUP FOR SOUTH DAKOTA
NATIONAL WEATHER SERVICE SIOUX FALLS SD
800 AM CDT THU JUL 28 2016

NOTE: "FAIR" INDICATES FEW OR NO CLOUDS BELOW 12,000 FEET WITH NO
SIGNIFICANT WEATHER AND/OR OBSTRUCTIONS TO VISIBILITY.


SDZ001>005-009-010-012>017-281400-
NORTHWEST AND NORTH CENTRAL SOUTH DAKOTA

CITY           SKY/WX    TMP DP  RH WIND       PRES   REMARKS
BUFFALO          N/A     62  61  96 NE5       30.08R
FAITH            N/A     62  57  83 SE13      30.12R
MOBRIDGE       CLOUDY    64  58  80 CALM      30.12R
$$

SDZ012>016-024>037-041>051-057-063-072>074-281400-
SOUTHWEST AND SOUTH CENTRAL SOUTH DAKOTA

CITY           SKY/WX    TMP DP  RH WIND       PRES   REMARKS
RAPID CTY ARPT MOSUNNY   62  59  90 NE7       30.12R
PIERRE         PTSUNNY   64  58  80 E8        30.10S
CUSTER         CLOUDY    55  49  80 NW6       30.22S
ELLSWORTH AFB  PTSUNNY   63  61  93 NE7       30.11R
PHILIP         PTSUNNY   61  61 100 E10       30.09S
PINE RIDGE     CLOUDY    62  58  86 CALM      30.10R
WINNER         FAIR      63  59  87 CALM      30.13R
$$

SDZ004>011-016>023-039-040-281400-
NORTHEAST SOUTH DAKOTA

CITY           SKY/WX    TMP DP  RH WIND       PRES   REMARKS
ABERDEEN       CLOUDY    62  58  86 N8        30.11R
WATERTOWN      CLOUDY    62  59  90 NE6       30.08F
BROOKINGS      CLOUDY    61  59  93 N5        30.07F
SISSETON         N/A     63  59  87 N8        30.08S
$$

SDZ017-020-022-023-036>040-048>070-281400-
SOUTHEAST SOUTH DAKOTA

CITY           SKY/WX    TMP DP  RH WIND       PRES   REMARKS
SIOUX FALLS    MOSUNNY   66  60  81 N6        30.06S
HURON          PTSUNNY   62  58  86 NW7       30.09R
CHAMBERLAIN    SUNNY     66  61  82 CALM      30.13R
MITCHELL       MOSUNNY   64  61  90 NW6       30.10R
YANKTON        MOSUNNY   64  61  88 W8        30.09R
$$

ABBREVIATIONS USED IN REMARKS
   TC - TEMPERATURE IN CELSIUS
  WCI - WIND CHILL INDEX
   HX - HEAT INDEX
  VSB - VISIBILITY





USA.gov is the U.S. government's official web portal to all federal, state and local government web resources and services.